Regional Weather Roundup
Issued by NWS Wilmington, NC

Home | Current Version | Previous Version | Text Only | Print | Product List | Glossary On
Versions: 1 2 3 4 5 6 7 8 9 10 11 12 13 14 15 16 17 18 19 20 21 22 23 24 25 26 27 28 29 30 31 32 33 34 35 36 37 38 39 40 41 42 43 44 45 46 47 48 49 50
000
ASUS42 KILM 250613
RWRILM
RWRILM
REGIONAL HOURLY WEATHER ROUNDUP
NATIONAL WEATHER SERVICE WILMINGTON NC
200 AM EDT MON JUL 25 2016

NOTE: "FAIR" INDICATES FEW OR NO CLOUDS BELOW 12,000 FEET WITH NO
SIGNIFICANT WEATHER AND/OR OBSTRUCTIONS TO VISIBILITY.

...............WFO WILMINGTON COUNTY WARNING AREA...............

......COASTAL NC AND SC COUNTIES......

CITY           SKY/WX    TMP DP  RH WIND       PRES   REMARKS
WILMINGTON     CLEAR     79  75  87 SW3       30.05S
N MYRTLE BEACH CLEAR     82  77  84 SW8       30.05S HX  90
MYRTLE BEACH   CLEAR     82  70  65 SW5       30.07S

......INLAND NC AND SC COUNTIES.......

CITY           SKY/WX    TMP DP  RH WIND       PRES   REMARKS
LUMBERTON      CLEAR     78  76  93 CALM      30.04S
ELIZABETHTOWN  CLEAR     79  79  99 S3        30.05S
WHITEVILLE     PTCLDY    79  77  94 SW3       30.05S
FLORENCE       CLEAR     79  75  87 S6        30.05S
DARLINGTON     CLEAR     79  76  90 SW6       30.05S
KINGSTREE      FAIR      75  73  94 CALM      30.05S
HARTSVILLE     FAIR      77  73  88 S3        30.04F
BENNETTSVILLE  FAIR      81  77  89 S3        30.03F
CONWAY         FAIR      75  73  94 CALM      30.06S
GEORGETOWN     FAIR      75  73  94 CALM      30.06F
MARION           N/A     77  75  94 S3        30.05S

....................REST OF NORTH CAROLINA......................

.........EASTERN NC.........

CITY           SKY/WX    TMP DP  RH WIND       PRES   REMARKS
CAPE HATTERAS  CLEAR     82  77  84 SW8       30.05S HX  90
JACKSONVILLE   CLEAR     75  74  96 S5        30.05F
MOREHEAD CITY  CLEAR     83  77  82 SW12      30.05S HX  92
KENANSVILLE    NOT AVBL
NEW BERN       CLEAR     78  76  93 S6        30.06S
ELIZABETH CITY CLEAR     80  75  84 SW9       30.01F

.........CENTRAL NC.........

CITY           SKY/WX    TMP DP  RH WIND       PRES   REMARKS
RALEIGH DURHAM PTCLDY    81  75  82 SW9       30.03F
ROCKY MOUNT    CLEAR     78  77  96 S7        30.02F
ROANOKE RAPIDS NOT AVBL
FAYETTEVILLE   PTCLDY    80  75  84 S7        30.03F
HOFFMAN        CLEAR     79  75  87 SW6       30.04S

.........WESTERN NC.........

CITY           SKY/WX    TMP DP  RH WIND       PRES   REMARKS
CHARLOTTE      PTCLDY    79  71  76 S7        30.04F
GREENSBORO     PTCLDY    80  73  79 S8        30.04S
HICKORY        NOT AVBL
BOONE          NOT AVBL
ASHEVILLE      NOT AVBL

.....................REST OF SOUTH CAROLINA.....................

.........EASTERN SC.........

CITY           SKY/WX    TMP DP  RH WIND       PRES   REMARKS
CHARLESTON     PTCLDY    79  75  87 S5        30.05F
BEAUFORT MCAS  CLEAR     81  74  79 SW5       30.06S
HILTON HEAD    CLEAR     84  75  74 VRB7G14   30.06S HX  92

.........CENTRAL SC.........

CITY           SKY/WX    TMP DP  RH WIND       PRES   REMARKS
COLUMBIA       CLEAR     82  73  74 S6        30.03F
ORANGEBURG     CLEAR     78  75  90 S3        30.06S
SUMTER SHAW    CLEAR     80  74  84 S6        30.02F

.........WESTERN SC.........

CITY           SKY/WX    TMP DP  RH WIND       PRES   REMARKS
GREENVILLE     NOT AVBL
ROCK HILL      CLEAR     79  72  79 SW8       30.05S
ANDERSON       CLEAR     79  71  76 CALM      30.04S
CLEMSON        NOT AVBL
GREENWOOD      PTCLDY    80  69  69 S7        30.05F


...................COASTAL AND OFFSHORE REPORTS..................

................LOCAL PIERS AND NC RESERVE................


STATION/POSITION TIME  SKY/WX   TEMP    WIND        PRES    VSBY
                                AIR SEA DIR/SP/G
                 (UTC)          (F)     (DEG/KT/KT) (MB)    (MI)
JOHNY MRCER PIER 0500            81 81  200/  5/  5 1016.8F
NC RESRV MASNBRO NOT AVBL
OCEAN CREST PIER NOT AVBL
SPRINGMAID  PIER 0500            83 84              1017.4S


................COASTAL AND OFFSHORE BUOYS................


STATION/POSITION TIME  SKY/WX   TEMP    WIND        PRES    VSBY
                                AIR SEA DIR/SP/G
                 (UTC)          (F)     (DEG/KT/KT) (MB)    (MI)
DIMNDSHOAL 41025 0550            85 85  240/ 14/ 16 1017.3F
WVE H/P(F/S)=  3/ 4 SWL H/P/D(F/S/D)=  2/120/ 8

CAPE LOOKOUT     0600            83     220/  9/ 13 1017.5F
ONSLOW BAY 41036 NOT AVBL
ONSLOW BAY 41064 0508            84 85  220/ 12/ 16 1017.7F
ONSLOW BAY 41159 0525               85                N/A
WVE H/P(F/S)=  3/ 4

5SE WRITBC 41038 0508            83 84  220/ 12/ 14 1018.5F
MASNBO INL 41110 0506               84                N/A
WVE H/P(F/S)=  2/ 8

WILM HARBR 41108 0526               86                N/A
WVE H/P(F/S)=  2/ 4

27SE WRITB 41037 0508            84 85  210/ 12/ 16 1017.8F
FRYING PAN 41013 0600            85 85  210/ 12/ 16 1017.5S
SUNST NRSH 41024 0508            84 84  220/ 12/ 16 1017.5F
CAPRS NRSH 41029 0508            84 83  220/ 14/ 17 1017.8R
EDISTO     41004 0550            85 86  200/ 14/ 16 1017.4S
WVE H/P(F/S)=  2/ 8 SWL H/P/D(F/S/D)=  2/120/ 8



..........OFFSHORE BUOYS BEYOND 100 NM OFFSHORE...........
.....IN A TRIANGLE---HAT TO BERMUDA TO BAHAMAS TO HAT.....


STATION/POSITION TIME  SKY/WX   TEMP    WIND        PRES    VSBY
                                AIR SEA DIR/SP/G
                 (UTC)          (F)     (DEG/KT/KT) (MB)    (MI)
150E HAT   41001 NOT AVBL
W BERMUDA  41048 0550            83 84  260/  8/ 10 1019.2S
WVE H/P(F/S)=  2/ 8 SWL H/P/D(F/S/D)=  2/120/ 8

ATLANTIC S 41049 0550            82 85  140/  6/ 10 1021.0F
WVE H/P(F/S)=  3/ 7 SWL H/P/D(F/S/D)=  3/100/ 7

E BAHAMAS  41046 0600            83 85  100/ 14/ 16 1018.4F
NE BAHAMAS 41047 0600            84 85  150/  8/ 10 1019.0F
120E CANVRL41010 0520            84 86  170/  4/  6 1018.4F

END



USA.gov is the U.S. government's official web portal to all federal, state and local government web resources and services.